GW1258 Weather Reports


time (UTC)temp
F
wind
direction
speed
knots
gust
knots
rain 1hr
in
rain 24hr
in
rain mn
in
humidity
%
barometer
mb
20260506025820 53 246 0.0 3.5 0.00 0.05 0.05 69 1019.6
20260506025316 53 205 0.9 2.6 0.00 0.05 0.05 68 1019.6
20260506024813 54 259 1.7 4.3 0.00 0.05 0.05 67 1019.5
20260506024310 54 248 2.6 2.6 0.00 0.05 0.05 66 1019.7
20260506023806 55 293 0.0 4.3 0.00 0.05 0.05 63 1019.3
20260506023303 55 231 0.9 3.5 0.00 0.05 0.05 62 1019.2
20260506022759 56 256 1.7 2.6 0.00 0.05 0.05 61 1019.2
20260506022258 56 206 1.7 5.2 0.00 0.05 0.05 59 1019.1
20260506021755 57 237 1.7 6.1 0.00 0.05 0.05 59 1019.2
20260506021252 57 279 1.7 3.5 0.00 0.05 0.05 58 1019.2
20260506020749 58 234 1.7 3.5 0.00 0.05 0.05 57 1019.1
20260506020247 58 264 3.5 6.1 0.00 0.05 0.05 56 1019.0
20260506015744 59 268 1.7 7.0 0.00 0.05 0.05 54 1019.1
20260506015241 62 285 2.6 7.8 0.00 0.05 0.05 50 1019.0
20260506014738 64 223 1.7 4.3 0.00 0.05 0.05 46 1018.7
20260506014235 64 269 0.0 2.6 0.00 0.05 0.05 44 1019.0
20260506013732 64 254 0.9 1.7 0.00 0.05 0.05 44 1019.0
20260506013229 62 189 1.7 2.6 0.00 0.05 0.05 48 1018.7
20260506012725 64 333 0.0 1.7 0.00 0.05 0.05 42 1019.0
20260506012222 63 294 0.0 2.6 0.00 0.05 0.05 44 1018.9
20260506011720 62 309 0.0 2.6 0.00 0.05 0.05 48 1018.7
20260506011215 59 266 2.6 3.5 0.00 0.05 0.05 50 1018.9
20260506010714 59 289 0.0 1.7 0.00 0.05 0.05 48 1019.0
20260506010211 59 345 0.0 2.6 0.00 0.05 0.05 47 1018.9
20260506005708 62 86 0.9 4.3 0.00 0.05 0.05 46 1019.1
20260506005205 62 249 0.0 2.6 0.00 0.05 0.05 46 1019.0
20260506004655 62 174 0.0 2.6 0.00 0.05 0.05 46 1019.1
20260506004153 64 65 0.0 3.5 0.00 0.05 0.05 46 1019.0
20260506003649 62 229 1.7 4.3 0.00 0.05 0.05 43 1018.9
20260506003146 60 63 3.5 6.1 0.00 0.05 0.05 47 1019.0
20260506002641 59 94 1.7 8.7 0.00 0.05 0.05 49 1018.9
20260506002138 60 108 0.0 5.2 0.00 0.05 0.05 52 1018.9
20260506001633 60 81 1.7 4.3 0.00 0.05 0.05 51 1019.0
20260506001131 58 80 1.7 3.5 0.00 0.05 0.05 53 1018.9
20260506000628 59 65 2.6 4.3 0.00 0.05 0.05 56 1019.0
20260506000125 61 39 0.9 6.1 0.00 0.05 0.05 45 1018.6
20260505235623 62 241 0.9 7.0 0.00 0.05 0.05 47 1019.1
20260505235120 61 242 0.0 2.6 0.00 0.05 0.05 48 1019.1
20260505234617 63 158 0.9 7.0 0.00 0.05 0.05 53 1019.1
20260505234114 62 229 0.0 6.1 0.00 0.05 0.05 46 1019.0
20260505233612 65 302 0.9 5.2 0.00 0.05 0.05 43 1019.1
20260505233109 65 281 3.5 4.3 0.00 0.05 0.05 47 1019.0
20260505232606 63 121 0.0 3.5 0.00 0.05 0.05 50 1019.0
20260505232104 63 74 1.7 2.6 0.00 0.05 0.05 47 1019.2
20260505231600 63 273 0.9 3.5 0.00 0.05 0.05 48 1019.1
20260505231059 59 106 0.9 4.3 0.00 0.05 0.05 56 1019.1
20260505230556 58 53 0.0 2.6 0.00 0.05 0.05 55 1019.1
20260505230052 59 140 0.9 5.2 0.00 0.05 0.05 60 1019.1
20260505225549 60 87 2.6 8.7 0.00 0.05 0.05 53 1019.1
20260505225045 60 267 1.7 3.5 0.00 0.05 0.05 55 1019.1
20260505224543 58 240 0.0 2.6 0.00 0.05 0.05 62 1019.1
20260505224040 58 203 0.0 1.7 0.00 0.05 0.05 59 1019.5
20260505223537 57 25 0.0 3.5 0.00 0.05 0.05 62 1019.2
20260505223033 58 309 2.6 5.2 0.00 0.05 0.05 59 1019.3
20260505222529 58 77 0.9 5.2 0.00 0.05 0.05 62 1019.3
20260505222025 58 77 0.9 5.2 0.00 0.05 0.05 62 1019.3
20260505221523 60 46 0.9 2.6 0.00 0.05 0.05 57 1019.5
20260505221019 61 56 2.6 3.5 0.00 0.05 0.05 57 1019.5
20260505220517 59 76 0.0 7.0 0.00 0.05 0.05 59 1019.7
20260505220015 59 108 1.7 5.2 0.00 0.05 0.05 58 1019.5
20260505215512 59 57 0.0 3.5 0.00 0.05 0.05 61 1019.7
20260505215010 59 158 0.9 2.6 0.00 0.05 0.05 58 1019.7
20260505214508 57 259 1.7 6.1 0.00 0.05 0.05 64 1019.7
20260505214004 57 239 0.0 4.3 0.00 0.05 0.05 62 1020.0
20260505213502 55 314 1.7 5.2 0.00 0.05 0.05 66 1019.8
20260505212958 56 163 1.7 4.3 0.00 0.05 0.05 66 1020.3
20260505212455 54 277 0.0 2.6 0.00 0.05 0.05 72 1019.8
20260505211952 53 105 2.6 4.3 0.00 0.05 0.05 71 1020.1
20260505211449 54 134 0.9 2.6 0.00 0.05 0.05 70 1019.7
20260505210945 53 254 3.5 3.5 0.00 0.05 0.05 71 1020.0
20260505210442 54 166 0.0 1.7 0.00 0.05 0.05 69 1020.1
20260505205939 54 47 0.0 2.6 0.00 0.05 0.05 72 1020.1
20260505205438 54 192 0.9 4.3 0.00 0.05 0.05 71 1020.1
20260505204934 54 343 0.9 2.6 0.00 0.05 0.05 74 1020.1
20260505204432 54 134 2.6 3.5 0.00 0.05 0.05 71 1020.1
20260505203929 53 116 0.0 2.6 0.00 0.05 0.05 74 1020.2
20260505203425 53 313 1.7 3.5 0.00 0.05 0.05 71 1019.8
20260505202922 53 187 0.0 3.5 0.00 0.05 0.05 75 1019.8
20260505202418 53 97 2.6 4.3 0.00 0.05 0.05 74 1019.7
20260505201915 53 124 2.6 3.5 0.00 0.05 0.05 74 1020.2
20260505201412 53 357 1.7 6.1 0.00 0.05 0.05 77 1019.8
20260505200910 54 265 0.9 3.5 0.00 0.05 0.05 75 1019.8
20260505200407 56 324 2.6 5.2 0.00 0.05 0.05 71 1020.0
20260505195902 56 269 1.7 5.2 0.00 0.05 0.05 66 1020.0
20260505195400 58 243 1.7 3.5 0.00 0.05 0.05 64 1020.0
20260505194857 55 110 0.0 2.6 0.00 0.05 0.05 77 1020.2
20260505194355 51 198 1.7 3.5 0.00 0.05 0.05 82 1020.2
20260505193854 52 130 0.9 4.3 0.00 0.05 0.05 80 1020.1
20260505193353 51 224 0.0 2.6 0.00 0.05 0.05 82 1020.2
20260505192850 50 258 1.7 2.6 0.00 0.05 0.05 81 1019.8
20260505192348 50 107 0.0 6.1 0.00 0.05 0.05 82 1019.8
20260505191845 51 149 0.0 3.5 0.00 0.05 0.05 81 1020.0
20260505191344 50 288 1.7 3.5 0.00 0.05 0.05 82 1020.0
20260505190840 50 288 1.7 5.2 0.00 0.05 0.05 83 1020.0
20260505190336 50 303 0.0 4.3 0.00 0.05 0.05 83 1019.5
20260505185831 50 295 0.9 3.5 0.00 0.05 0.05 83 1019.7
20260505185328 50 263 0.0 5.2 0.00 0.05 0.05 84 1019.7
20260505184824 50 265 0.0 4.3 0.00 0.05 0.05 86 1019.6
20260505184322 50 282 1.7 3.5 0.00 0.05 0.05 85 1019.7
20260505183819 50 99 1.7 5.2 0.00 0.05 0.05 83 1019.7
20260505183315 50 262 0.9 2.6 0.00 0.05 0.05 84 1019.6
20260505182812 48 81 0.9 2.6 0.00 0.05 0.05 88 1019.7
20260505182309 47 171 0.0 1.7 0.00 0.05 0.05 88 1019.8
20260505181806 47 76 0.9 2.6 0.00 0.05 0.05 92 1019.7
20260505181303 47 95 1.7 2.6 0.00 0.05 0.05 91 1019.7
20260505180759 47 101 0.9 1.7 0.00 0.05 0.05 92 1019.8
20260505180256 46 131 0.9 2.6 0.00 0.05 0.05 90 1019.6
20260505175752 46 227 1.7 3.5 0.00 0.05 0.05 90 1019.7
20260505175249 46 15 0.0 2.6 0.00 0.05 0.05 90 1019.6
20260505174745 46 256 2.6 3.5 0.00 0.05 0.05 91 1019.2
20260505174243 46 317 2.6 5.2 0.00 0.05 0.05 90 1019.1
20260505173738 47 114 0.9 3.5 0.00 0.05 0.05 91 1019.3
20260505173235 46 342 1.7 3.5 0.00 0.05 0.05 91 1019.3
20260505172732 46 322 0.0 2.6 0.00 0.05 0.05 91 1019.1
20260505172229 46 289 1.7 4.3 0.00 0.05 0.05 91 1019.2
20260505171729 46 315 0.0 3.5 0.00 0.05 0.05 91 1019.1
20260505171227 46 357 1.7 3.5 0.00 0.05 0.05 93 1018.9
20260505170723 45 312 2.6 7.8 0.00 0.05 0.05 92 1018.9
20260505170220 45 232 0.0 3.5 0.00 0.05 0.05 95 1018.9
20260505165715 44 341 2.6 3.5 0.00 0.05 0.05 95 1018.9
20260505165212 43 333 1.7 2.6 0.00 0.05 0.05 95 1018.7
20260505164707 43 42 0.9 3.5 0.00 0.05 0.05 96 1018.9
20260505164204 43 46 0.9 4.3 0.00 0.05 0.05 96 1018.9
20260505163703 43 172 0.9 2.6 0.00 0.05 0.05 96 1018.6
20260505163201 42 319 0.9 2.6 0.00 0.05 0.05 96 1018.5
20260505162658 42 264 0.0 2.6 0.00 0.05 0.05 97 1018.7
20260505162155 42 115 1.7 2.6 0.00 0.05 0.05 97 1018.6
20260505161652 42 269 0.0 2.6 0.00 0.05 0.05 97 1018.4
20260505161149 42 141 0.9 3.5 0.00 0.05 0.05 98 1018.6
20260505160647 42 289 0.0 2.6 0.00 0.05 0.05 98 1018.4
20260505160144 42 122 0.0 2.6 0.00 0.05 0.05 98 1018.4
20260505153124 41 314 0.0 2.6 0.00 0.05 0.05 98 1018.1
20260505152620 41 288 0.0 1.7 0.00 0.05 0.05 98 1018.0
20260505152116 41 89 0.0 0.9 0.00 0.05 0.05 98 1018.1
20260505151611 41 158 0.0 1.7 0.00 0.05 0.05 99 1018.0
20260505151109 41 315 1.7 2.6 0.00 0.05 0.05 99 1017.9
20260505150605 41 343 0.0 1.7 0.00 0.05 0.05 99 1017.8
20260505140530 40 88 0.0 1.7 0.00 0.05 0.05 99 1017.2
20260505124944 39 154 0.0 4.3 0.00 0.05 0.05 99 1016.3
20260505124441 39 205 0.9 2.6 0.00 0.05 0.05 99 1016.4
20260505123937 39 168 0.9 4.3 0.00 0.05 0.05 99 1016.2
20260505123433 39 329 1.7 5.2 0.00 0.05 0.05 99 1016.1
20260505122929 39 29 0.9 3.5 0.00 0.05 0.05 99 1016.1
20260505122427 39 213 0.9 4.3 0.00 0.05 0.05 99 1016.2
20260505121923 39 95 3.5 4.3 0.00 0.05 0.05 99 1016.2
20260505121421 39 320 1.7 4.3 0.00 0.05 0.05 99 1016.3
20260505120916 39 291 0.0 2.6 0.00 0.05 0.05 99 1016.4
20260505120413 39 0 0.9 1.7 0.00 0.05 0.05 99 1016.4
20260505115912 39 67 0.0 2.6 0.00 0.05 0.05 99 1016.3
20260505115409 39 269 0.0 1.7 0.00 0.05 0.05 99 1016.2
20260505114907 39 320 0.0 1.7 0.00 0.05 0.05 99 1016.3
20260505114403 39 150 0.0 2.6 0.00 0.05 0.05 99 1016.2
20260505113859 39 7 0.9 2.6 0.00 0.05 0.05 99 1016.2
20260505113356 39 352 0.9 2.6 0.00 0.05 0.05 99 1016.4
20260505112852 39 302 0.9 2.6 0.00 0.05 0.05 99 1016.3
20260505112350 39 266 0.0 1.7 0.00 0.05 0.05 99 1016.1
20260505111845 39 48 0.9 2.6 0.00 0.05 0.05 99 1016.3
20260505111340 39 204 0.0 1.7 0.00 0.05 0.05 99 1016.3
20260505110837 39 174 0.0 1.7 0.00 0.05 0.05 99 1016.2
20260505110334 39 250 1.7 4.3 0.00 0.05 0.05 99 1016.1
20260505101809 38 124 0.0 1.7 0.00 0.05 0.05 99 1016.4
20260505101304 38 151 0.0 2.6 0.00 0.05 0.05 99 1016.6
20260505100801 38 109 0.0 3.5 0.00 0.05 0.05 99 1016.3
20260505100257 38 131 0.0 2.6 0.00 0.05 0.05 99 1016.3
20260505095753 39 233 1.7 2.6 0.00 0.05 0.05 99 1016.4
20260505095251 39 269 0.0 1.7 0.00 0.05 0.05 99 1016.6
20260505094746 39 169 2.6 2.6 0.00 0.05 0.05 99 1016.7
20260505094243 39 237 0.0 2.6 0.00 0.05 0.05 99 1016.4
20260505093739 39 178 0.9 2.6 0.00 0.05 0.05 99 1016.7
20260505093237 39 139 0.9 2.6 0.00 0.05 0.05 99 1016.8
20260505092734 39 129 0.9 1.7 0.00 0.05 0.05 99 1016.7
20260505092232 39 79 0.9 2.6 0.00 0.05 0.05 99 1016.8
20260505091729 39 197 0.9 2.6 0.00 0.05 0.05 99 1016.7
20260505091228 39 89 0.0 0.9 0.00 0.05 0.05 99 1016.8
20260505090725 39 241 1.7 2.6 0.00 0.05 0.05 99 1016.8
20260505090223 39 114 0.0 2.6 0.00 0.05 0.05 99 1016.8
20260505085720 39 257 2.6 5.2 0.00 0.05 0.05 99 1016.3
20260505085218 39 135 0.0 1.7 0.00 0.05 0.05 99 1016.8
20260505084715 39 119 0.0 0.9 0.00 0.05 0.05 99 1016.8
20260505084214 39 254 0.0 1.7 0.00 0.05 0.05 99 1016.8
20260505083710 39 224 0.0 1.7 0.00 0.05 0.05 99 1016.9
20260505083207 39 113 0.0 1.7 0.00 0.05 0.05 99 1017.0
20260505082703 39 174 0.0 2.6 0.00 0.05 0.05 99 1017.2
20260505082201 39 192 0.9 1.7 0.00 0.05 0.05 99 1016.8
20260505081656 39 13 1.7 2.6 0.00 0.05 0.05 99 1017.2
20260505081154 39 44 0.0 1.7 0.00 0.05 0.05 99 1017.3
20260505080651 39 221 0.9 5.2 0.02 0.05 0.05 99 1017.0
20260505080146 39 57 0.0 3.5 0.02 0.04 0.04 99 1017.0
20260505075642 39 239 2.6 4.3 0.02 0.04 0.04 99 1016.9
20260505075139 39 241 1.7 4.3 0.00 0.04 0.04 99 1017.0
20260505074636 39 255 1.7 5.2 0.00 0.04 0.04 99 1016.9
20260505074133 39 235 1.7 7.0 0.00 0.04 0.04 99 1016.8
20260505073631 39 233 2.6 3.5 0.05 0.04 0.04 99 1016.8
20260505073129 39 203 0.0 3.5 0.09 0.04 0.04 99 1016.9
20260505072624 39 230 1.7 2.6 0.07 0.03 0.03 99 1016.9
20260505072121 39 100 0.0 1.7 0.09 0.02 0.02 99 1017.0
20260505071617 39 150 1.7 3.5 0.12 0.02 0.02 99 1017.5
20260505071115 39 115 2.6 5.2 0.05 0.01 0.01 99 1017.5
20260505070612 39 70 3.5 4.3 0.00 0.00 0.00 99 1017.4
20260505070108 39 226 0.9 2.6 0.02 0.00 0.00 99 1017.0
20260505065604 39 61 2.6 3.5 0.05 0.47 0.47 99 1017.3
20260505065101 39 266 0.0 2.6 0.09 0.47 0.47 99 1017.0
20260505064558 39 67 2.6 9.6 0.12 0.46 0.46 99 1017.2
20260505064056 39 323 3.5 6.1 0.09 0.45 0.45 99 1016.7
20260505063553 39 192 1.7 2.6 0.05 0.44 0.44 99 1016.8
20260505063049 39 60 0.0 4.3 0.02 0.43 0.43 99 1016.7
20260505062545 39 126 1.7 2.6 0.02 0.43 0.43 99 1016.7
20260505062043 39 132 1.7 2.6 0.00 0.42 0.42 99 1016.8
20260505061540 39 149 0.0 2.6 0.00 0.42 0.42 99 1016.9
20260505061038 39 147 0.0 1.7 0.00 0.42 0.42 99 1016.8
20260505060535 39 181 0.0 1.7 0.00 0.42 0.42 99 1016.7
20260505060032 39 138 1.7 1.7 0.00 0.42 0.42 99 1016.7
20260505055527 39 310 1.7 3.5 0.00 0.42 0.42 99 1016.7
20260505055024 39 251 1.7 4.3 0.00 0.42 0.42 99 1016.8
20260505054521 39 156 0.0 7.0 0.00 0.42 0.42 99 1016.9
20260505054020 39 237 1.7 3.5 0.00 0.42 0.42 99 1016.9
20260505053516 39 252 1.7 3.5 0.00 0.42 0.42 99 1016.8
20260505053013 39 193 0.9 3.5 0.00 0.42 0.42 99 1017.2
20260505052510 39 308 0.0 5.2 0.02 0.42 0.42 99 1017.3
20260505052008 39 68 0.9 3.5 0.02 0.42 0.42 99 1017.2
20260505051504 39 185 0.0 1.7 0.00 0.42 0.42 99 1017.2
20260505051003 39 58 0.0 3.5 0.00 0.42 0.42 99 1017.2
20260505050500 39 89 0.0 4.3 0.00 0.42 0.42 99 1017.2
20260505041428 40 148 0.0 1.7 0.00 0.42 0.42 99 1016.9
20260505040925 40 195 0.0 1.7 0.00 0.42 0.42 99 1017.0
20260505040423 40 325 0.0 2.6 0.00 0.42 0.42 98 1016.9
20260505035919 40 201 1.7 1.7 0.00 0.42 0.42 98 1016.7
20260505035415 40 292 0.9 3.5 0.00 0.42 0.42 98 1016.4
20260505034913 40 173 0.0 2.6 0.00 0.42 0.42 99 1016.3
20260505034409 40 256 0.0 5.2 0.00 0.42 0.42 99 1016.4
20260505033906 40 250 1.7 3.5 0.00 0.42 0.42 99 1016.2
20260505033403 39 220 0.0 1.7 0.00 0.42 0.42 99 1016.1
20260505032901 39 222 1.7 4.3 0.00 0.42 0.42 98 1016.1
20260505032357 39 245 1.7 5.2 0.00 0.42 0.42 98 1016.4
20260505031854 39 264 0.0 2.6 0.00 0.42 0.42 98 1016.6
20260505031351 39 232 1.7 4.3 0.00 0.42 0.42 99 1016.6
20260505030848 39 251 2.6 3.5 0.02 0.42 0.42 98 1016.9
20260505030344 39 253 0.0 4.3 0.00 0.42 0.42 98 1016.9